Regional Weather Roundup
Issued by NWS Huntsville, AL

Home | Current Version | Previous Version | Text Only | Print | Product List | Glossary On
Versions: 1 2 3 4 5 6 7 8 9 10 11 12 13 14 15 16 17 18 19 20 21 22 23 24 25 26 27 28 29 30 31 32 33 34 35 36 37 38 39 40 41 42 43 44 45 46 47 48 49 50
000
ASUS44 KHUN 250510
RWRHUN

WEATHER ROUNDUP FOR THE TENNESSEE VALLEY
NATIONAL WEATHER SERVICE HUNTSVILLE AL
1100 PM CST SAT FEB 24 2018

ALZ001>004-250600-
NORTHWEST ALABAMA

CITY           SKY/WX    TMP DP  RH WIND       PRES   REMARKS
SHOALS AIRPORT FAIR      72  63  73 S20G30    29.88F
$$

ALZ005>007-016-250600-
NORTH CENTRAL ALABAMA

CITY           SKY/WX    TMP DP  RH WIND       PRES   REMARKS
DECATUR AP     CLOUDY    69  63  81 S20G31    29.92F
HUNTSVILLE AP  MOCLDY    71  64  78 S18G29    29.93F
MERIDIANVILLE  CLOUDY    69  62  78 S20G31    29.93S
REDSTONE ARSN  CLOUDY    69  63  82 SW21      29.92F
VINEMONT AP    MOCLDY    66  62  87 S15G22    29.99F
$$

ALZ008>010-250600-
NORTHEAST ALABAMA

CITY           SKY/WX    TMP DP  RH WIND       PRES   REMARKS
ALBERTVILLE    FAIR      66  66 100 S14G20    29.97F
FORT PAYNE     FAIR      66  61  82 S10       29.98F
SCOTTSBORO AP  FAIR      66  66 100 SW7       29.96S
$$

TNZ076-096-097-250600-
SOUTHEASTERN MIDDLE TENNESSEE

CITY           SKY/WX    TMP DP  RH WIND       PRES   REMARKS
TULLAHOMA      CLOUDY    68  61  77 S14G21    29.90F
WINCHESTER     MOCLDY    70  61  73 S12       29.93F
$$

...SURROUNDING SITES...

CITY           SKY/WX    TMP DP  RH WIND       PRES   REMARKS
ATLANTA        FAIR      70  59  68 SW9       30.07S
ANNISTON       FAIR      71  61  70 SW12G24   30.04R
BIRMINGHAM     FAIR      69  62  78 S18       30.02F
CHATTANOOGA    MOCLDY    67  61  81 S8        29.97F
CORINTH        LGT RAIN  59  55  88 W17       29.90R
DALTON         CLOUDY    70  59  68 S8        30.02S
GADSDEN        FAIR      67  64  90 S7        30.00F
GOLDEN TRNGL   MOCLDY    72  64  76 S16       29.93S
HALEYVILLE     CLOUDY    68  67  96 S15G21    29.94F
JACKSON TN     CLOUDY    56  54  93 SW12      29.87F
MEMPHIS        LGT RAIN  55  53  93 SW6       29.91R
NASHVILLE      HVY RAIN  59  55  87 W15G32    29.90R FOG
ROME           CLOUDY    72  60  66 S9        30.00S
SAVANNAH       CLOUDY    57  55  94 VRB3      29.89S FOG
SELMER         CLOUDY    55  54  94 W10G17    29.89R FOG
TUPELO         CLOUDY    72  63  73 S14       29.87S
TUSCALOOSA     CLOUDY    71  66  84 S15       29.99S
$$

...GULF COAST WEATHER...

CITY           SKY/WX    TMP DP  RH WIND       PRES   REMARKS
GULFPORT       FAIR      74  71  91 S9        30.05S
PASCAGOULA     FAIR      72  68  87 S3        30.06S
MOBILE         CLOUDY    70  68  93 S7        30.07F
GULF SHORES    FAIR      70  70 100 S8        30.09S
DESTIN         CLOUDY    73  69  87 SE8       30.10F
PANAMA CITY    FAIR      66  66 100 SE6       30.12F
APPALACHICOLA  CLOUDY    70  70 100 SE5       30.13S
$$




USA.gov is the U.S. government's official web portal to all federal, state and local government web resources and services.